Location: Treviso
(45.6669°N, 12.2430°E)
Time: 00:41:51
(UTC+02:00)

ISS - Pass Details

Date: 28 May 2017
Orbit: 402 x 408 km, 51.6° (Epoch: 30 May)

Event Time Altitude Azimuth Distance (km) Brightness Sun altitude
Rises 00:04:54 0° 287° (WNW) 2,334 0.5 -21.4°
Reaches altitude 10° 00:07:11 10° 300° (WNW) 1,472 -0.4 -21.5°
Maximum altitude 00:10:05 27° 1° (N) 814 -1.6 -21.6°
Drops below altitude 10° 00:12:58 10° 62° (ENE) 1,468 -0.8 -21.7°
Enters shadow 00:14:53 - 73° (ENE) 2,186 -0.1 -21.8°
